TimePDT,TemperatureF,Dew PointF,Humidity,Sea Level PressureIn,VisibilityMPH,Wind Direction,Wind SpeedMPH,Gust SpeedMPH,PrecipitationIn,Events,Conditions,WindDirDegrees,DateUTC
12:53 AM,91.0,51.1,25,29.80,10.0,WNW,4.6,-,N/A,,Clear,290,2013-08-19 07:53:00
1:53 AM,93.0,52.0,25,29.80,10.0,NW,10.4,-,N/A,,Clear,310,2013-08-19 08:53:00
2:53 AM,91.0,54.0,28,29.81,10.0,Calm,Calm,-,N/A,,Scattered Clouds,0,2013-08-19 09:53:00
3:53 AM,89.1,52.0,28,29.82,10.0,NE,3.5,-,N/A,,Scattered Clouds,40,2013-08-19 10:53:00
4:53 AM,88.0,54.0,31,29.83,10.0,Calm,Calm,-,N/A,,Clear,0,2013-08-19 11:53:00
5:53 AM,87.1,55.0,33,29.83,10.0,West,3.5,-,N/A,,Clear,270,2013-08-19 12:53:00
6:53 AM,89.1,59.0,36,29.85,10.0,WNW,3.5,-,N/A,,Scattered Clouds,300,2013-08-19 13:53:00
7:53 AM,91.9,59.0,33,29.86,10.0,Calm,Calm,-,N/A,,Scattered Clouds,0,2013-08-19 14:53:00
8:53 AM,93.9,60.1,32,29.86,10.0,Calm,Calm,-,N/A,,Scattered Clouds,0,2013-08-19 15:53:00
9:53 AM,98.1,55.9,24,29.86,10.0,Calm,Calm,-,N/A,,Scattered Clouds,0,2013-08-19 16:53:00
10:53 AM,102.0,55.9,22,29.86,10.0,Variable,4.6,-,N/A,,Scattered Clouds,0,2013-08-19 17:53:00
11:53 AM,102.0,55.9,22,29.85,10.0,ESE,9.2,19.6,N/A,,Mostly Cloudy,120,2013-08-19 18:53:00
12:53 PM,100.9,57.0,23,29.84,10.0,East,11.5,-,N/A,,Mostly Cloudy,100,2013-08-19 19:53:00
1:53 PM,104.0,55.9,20,29.82,10.0,SSE,10.4,-,N/A,,Mostly Cloudy,150,2013-08-19 20:53:00
2:53 PM,105.1,55.9,20,29.80,10.0,ESE,11.5,-,N/A,,Mostly Cloudy,120,2013-08-19 21:53:00
3:53 PM,102.9,55.9,21,29.77,10.0,East,8.1,-,N/A,,Mostly Cloudy,90,2013-08-19 22:53:00
4:53 PM,104.0,53.1,18,29.75,10.0,ESE,5.8,-,N/A,,Mostly Cloudy,110,2013-08-19 23:53:00
5:53 PM,102.9,55.9,21,29.74,10.0,East,6.9,-,N/A,,Clear,100,2013-08-20 00:53:00
6:53 PM,102.0,54.0,20,29.74,10.0,SE,5.8,-,N/A,,Clear,130,2013-08-20 01:53:00
7:53 PM,100.0,55.0,22,29.74,10.0,East,4.6,-,N/A,,Clear,80,2013-08-20 02:53:00
8:53 PM,98.1,57.9,26,29.76,10.0,North,6.9,-,N/A,,Scattered Clouds,10,2013-08-20 03:53:00
9:53 PM,95.0,57.0,28,29.78,10.0,WNW,5.8,-,N/A,,Scattered Clouds,300,2013-08-20 04:53:00
10:53 PM,91.9,57.0,31,29.79,10.0,NW,10.4,-,N/A,,Clear,320,2013-08-20 05:53:00
11:53 PM,90.0,57.0,33,29.80,10.0,Calm,Calm,-,N/A,,Clear,0,2013-08-20 06:53:00